OneWeb SL0509

operational
NORAD ID: 54127 Int'l Des: 2022-138 Owner: ONEWEBN Country: UK Constellation: oneweb
LEOCIRCULARPOLARONEWEB_TYPE

About OneWeb SL0509

Description loading...

Live Position

Loading 3D Globe...

Upcoming Passes

Altitude History

Altitude vs Time

uPlot chart will show altitude changes over time

Two-Line Element Set

1 54127U 22138Q 25353.25450910 .00000050 00000-0 92507-4 0 9991
2 54127 87.9214 340.7512 0001885 83.2257 276.9090 13.19725011153072
Epoch: Dec 19, 2025 • Age: 7 hours

Current Status

Altitude 1187.6 km
Velocity 7.26 km/s
Sub-Earth Point 8.89°N, 51.15°E
Launch Date Oct 22, 2022
Age 3.1 years
Type internet

Technical Details

Classification Payload
Mass 148.00 kg
Dry Mass 140.00 kg
Total Mass 148.00 kg
Length 1.30 m
Diameter 1.00 m
Span 5.00 m
Shape Trapezoid+2 pan
Manufacturer ONEWUS
Bus Type ARROW
Phase Status In Orbit
Owner/State ONEWEBN/UK

Large Constellations

Loading constellations...